USA 113

Last updated on Oct. 1, 2020, 5:42 a.m. UTC

1 23628U 95038A   20274.73767601 -.00000345  00000-0  00000-0 0  9991
2 23628  11.5311  29.2897 0002054 165.7884 184.1090  1.00277160 12057
UTC
Height (km)
Latitude
Longitude
Inclination
Orbital Period
UTC large
Height (km)
Speed (km/s)
/
Latitude / Longitude
Inclination (degrees)
Orbital Period (minutes)
Azimuth
Elevation
Range (km)
Doppler Factor
iOS Compass Heading
iOS Angle

Next 30 passes for location: Hong Kong

Rise time Rise Azimuth (degrees) Set time Set Azimuth (degrees) Duration Max altitude (degrees)

No matching passes for this satellites